| time (UTC) | temp F | wind direction | speed knots | gust knots | rain 1hr in | rain 24hr in | rain mn in | humidity % | barometer mb |
| 20260504175444 | 72 | 248 | 2.6 | 5.2 | 0.00 | 0.00 | 0.00 | 29 | 1013.4 |
| 20260504174942 | 72 | 219 | 2.6 | 4.3 | 0.00 | 0.00 | 0.00 | 31 | 1013.4 |
| 20260504174439 | 71 | 250 | 0.9 | 3.5 | 0.00 | 0.00 | 0.00 | 32 | 1013.3 |
| 20260504173936 | 71 | 222 | 1.7 | 6.1 | 0.00 | 0.00 | 0.00 | 29 | 1013.5 |
| 20260504173432 | 71 | 233 | 2.6 | 2.6 | 0.00 | 0.00 | 0.00 | 32 | 1013.6 |
| 20260504172930 | 71 | 242 | 3.5 | 7.8 | 0.00 | 0.00 | 0.00 | 29 | 1013.7 |
| 20260504172426 | 70 | 260 | 4.3 | 4.3 | 0.00 | 0.00 | 0.00 | 30 | 1013.7 |
| 20260504171923 | 71 | 268 | 1.7 | 5.2 | 0.00 | 0.00 | 0.00 | 29 | 1013.8 |
| 20260504171420 | 70 | 231 | 1.7 | 5.2 | 0.00 | 0.00 | 0.00 | 31 | 1013.9 |
| 20260504170917 | 70 | 334 | 2.6 | 7.0 | 0.00 | 0.00 | 0.00 | 29 | 1014.0 |
| 20260504170413 | 70 | 333 | 0.9 | 5.2 | 0.00 | 0.00 | 0.00 | 30 | 1013.9 |
| 20260504160332 | 68 | 245 | 2.6 | 6.1 | 0.00 | 0.00 | 0.00 | 33 | 1014.8 |
| 20260504150756 | 66 | 169 | 1.7 | 5.2 | 0.00 | 0.00 | 0.00 | 40 | 1015.1 |
| 20260504150253 | 66 | 253 | 4.3 | 4.3 | 0.00 | 0.00 | 0.00 | 38 | 1015.4 |
| 20260504141223 | 64 | 253 | 1.7 | 2.6 | 0.00 | 0.00 | 0.00 | 48 | 1015.4 |
| 20260504140720 | 64 | 258 | 1.7 | 4.3 | 0.00 | 0.00 | 0.00 | 46 | 1015.6 |
| 20260504140215 | 64 | 263 | 2.6 | 2.6 | 0.00 | 0.00 | 0.00 | 48 | 1015.6 |
| 20260504130643 | 60 | 154 | 0.0 | 4.3 | 0.00 | 0.00 | 0.00 | 57 | 1016.1 |
| 20260504130139 | 59 | 268 | 1.7 | 5.2 | 0.00 | 0.00 | 0.00 | 56 | 1016.0 |
| 20260504120104 | 55 | 278 | 0.0 | 2.6 | 0.00 | 0.00 | 0.00 | 69 | 1016.3 |
| 20260504110531 | 49 | 152 | 1.7 | 1.7 | 0.00 | 0.00 | 0.00 | 78 | 1016.9 |
| 20260504100454 | 48 | 160 | 0.0 | 1.7 | 0.00 | 0.00 | 0.00 | 75 | 1016.8 |
| 20260504081847 | 45 | 122 | 0.9 | 1.7 | 0.00 | 0.00 | 0.00 | 71 | 1016.4 |
| 20260504081343 | 45 | 122 | 0.9 | 1.7 | 0.00 | 0.00 | 0.00 | 70 | 1016.6 |
| 20260504080839 | 45 | 113 | 0.0 | 0.9 | 0.00 | 0.00 | 0.00 | 69 | 1016.6 |
| 20260504080337 | 45 | 117 | 0.9 | 1.7 | 0.00 | 0.00 | 0.00 | 70 | 1016.5 |
| 20260504070304 | 45 | 125 | 0.9 | 1.7 | 0.00 | 0.00 | 0.00 | 70 | 1016.2 |
| 20260504060224 | 46 | 119 | 0.9 | 1.7 | 0.00 | 0.00 | 0.00 | 66 | 1016.3 |
| 20260504050652 | 47 | 152 | 1.7 | 1.7 | 0.00 | 0.00 | 0.00 | 62 | 1016.1 |
| 20260504050149 | 47 | 114 | 0.9 | 1.7 | 0.00 | 0.00 | 0.00 | 63 | 1016.2 |
| 20260504045646 | 47 | 123 | 0.9 | 1.7 | 0.00 | 0.00 | 0.00 | 62 | 1016.2 |
| 20260504045146 | 47 | 108 | 0.0 | 1.7 | 0.00 | 0.00 | 0.00 | 61 | 1016.2 |
| 20260504044644 | 47 | 119 | 1.7 | 1.7 | 0.00 | 0.00 | 0.00 | 62 | 1016.0 |
| 20260504044141 | 47 | 131 | 0.9 | 1.7 | 0.00 | 0.00 | 0.00 | 61 | 1016.0 |
| 20260504043638 | 47 | 111 | 0.9 | 1.7 | 0.00 | 0.00 | 0.00 | 60 | 1016.0 |
| 20260504043135 | 48 | 135 | 0.0 | 1.7 | 0.00 | 0.00 | 0.00 | 61 | 1016.2 |
| 20260504042632 | 48 | 135 | 0.0 | 1.7 | 0.00 | 0.00 | 0.00 | 58 | 1016.1 |
| 20260504042129 | 48 | 133 | 0.9 | 1.7 | 0.00 | 0.00 | 0.00 | 57 | 1016.0 |
| 20260504041625 | 48 | 139 | 0.9 | 1.7 | 0.00 | 0.00 | 0.00 | 56 | 1015.9 |
| 20260504041121 | 49 | 150 | 1.7 | 1.7 | 0.00 | 0.00 | 0.00 | 56 | 1015.7 |
| 20260504040618 | 49 | 133 | 1.7 | 1.7 | 0.00 | 0.00 | 0.00 | 56 | 1015.8 |
| 20260504040115 | 49 | 146 | 0.9 | 1.7 | 0.00 | 0.00 | 0.00 | 56 | 1015.5 |
| 20260504035612 | 49 | 122 | 0.0 | 1.7 | 0.00 | 0.00 | 0.00 | 55 | 1015.6 |
| 20260504035108 | 49 | 128 | 0.0 | 1.7 | 0.00 | 0.00 | 0.00 | 56 | 1015.6 |
| 20260504034606 | 49 | 145 | 0.0 | 1.7 | 0.00 | 0.00 | 0.00 | 56 | 1015.8 |
| 20260504034103 | 49 | 137 | 1.7 | 1.7 | 0.00 | 0.00 | 0.00 | 57 | 1015.8 |
| 20260504033601 | 49 | 152 | 0.9 | 1.7 | 0.00 | 0.00 | 0.00 | 56 | 1015.6 |
| 20260504033058 | 49 | 123 | 0.9 | 1.7 | 0.00 | 0.00 | 0.00 | 54 | 1015.7 |
| 20260504032555 | 49 | 132 | 0.0 | 1.7 | 0.00 | 0.00 | 0.00 | 55 | 1015.5 |
| 20260504032052 | 50 | 145 | 0.9 | 1.7 | 0.00 | 0.00 | 0.00 | 53 | 1015.5 |
| 20260504031548 | 50 | 136 | 0.0 | 0.9 | 0.00 | 0.00 | 0.00 | 52 | 1015.4 |
| 20260504031045 | 50 | 97 | 0.9 | 1.7 | 0.00 | 0.00 | 0.00 | 49 | 1015.4 |
| 20260504030542 | 50 | 163 | 0.9 | 1.7 | 0.00 | 0.00 | 0.00 | 50 | 1015.3 |
| 20260504030038 | 50 | 166 | 1.7 | 2.6 | 0.00 | 0.00 | 0.00 | 49 | 1015.5 |
| 20260504025536 | 50 | 138 | 0.9 | 1.7 | 0.00 | 0.00 | 0.00 | 51 | 1015.4 |
| 20260504025032 | 50 | 149 | 1.7 | 1.7 | 0.00 | 0.00 | 0.00 | 51 | 1015.3 |
| 20260504024529 | 51 | 167 | 1.7 | 1.7 | 0.00 | 0.00 | 0.00 | 51 | 1015.6 |
| 20260504024026 | 51 | 141 | 0.9 | 1.7 | 0.00 | 0.00 | 0.00 | 50 | 1015.4 |
| 20260504023523 | 51 | 127 | 1.7 | 1.7 | 0.00 | 0.00 | 0.00 | 50 | 1015.5 |
| 20260504023018 | 51 | 151 | 1.7 | 1.7 | 0.00 | 0.00 | 0.00 | 49 | 1015.6 |
| 20260504022514 | 51 | 152 | 0.0 | 1.7 | 0.00 | 0.00 | 0.00 | 50 | 1015.4 |
| 20260504022011 | 51 | 146 | 0.0 | 1.7 | 0.00 | 0.00 | 0.00 | 49 | 1015.7 |
| 20260504021509 | 51 | 163 | 1.7 | 1.7 | 0.00 | 0.00 | 0.00 | 48 | 1015.5 |
| 20260504021006 | 51 | 157 | 0.9 | 1.7 | 0.00 | 0.00 | 0.00 | 50 | 1015.3 |
| 20260504020502 | 51 | 150 | 0.9 | 1.7 | 0.00 | 0.00 | 0.00 | 48 | 1015.3 |
| 20260504015959 | 51 | 143 | 0.0 | 1.7 | 0.00 | 0.00 | 0.00 | 48 | 1015.5 |
| 20260504015455 | 52 | 128 | 0.0 | 1.7 | 0.00 | 0.00 | 0.00 | 48 | 1015.3 |
| 20260504014951 | 52 | 133 | 0.9 | 1.7 | 0.00 | 0.00 | 0.00 | 48 | 1015.5 |
| 20260504014447 | 52 | 123 | 0.9 | 1.7 | 0.00 | 0.00 | 0.00 | 48 | 1015.4 |
| 20260504013944 | 52 | 132 | 0.0 | 1.7 | 0.00 | 0.00 | 0.00 | 46 | 1015.3 |
| 20260504013443 | 52 | 134 | 0.9 | 1.7 | 0.00 | 0.00 | 0.00 | 47 | 1015.2 |
| 20260504012938 | 53 | 127 | 0.0 | 1.7 | 0.00 | 0.00 | 0.00 | 45 | 1015.3 |
| 20260504012437 | 53 | 107 | 0.9 | 1.7 | 0.00 | 0.00 | 0.00 | 45 | 1015.2 |
| 20260504011934 | 54 | 125 | 0.9 | 1.7 | 0.00 | 0.00 | 0.00 | 43 | 1015.0 |
| 20260504011430 | 54 | 133 | 0.9 | 1.7 | 0.00 | 0.00 | 0.00 | 40 | 1015.1 |
| 20260504010926 | 55 | 119 | 0.0 | 1.7 | 0.00 | 0.00 | 0.00 | 39 | 1014.9 |
| 20260504010422 | 56 | 137 | 0.0 | 1.7 | 0.00 | 0.00 | 0.00 | 38 | 1014.9 |
| 20260504005919 | 56 | 201 | 0.0 | 1.7 | 0.00 | 0.00 | 0.00 | 36 | 1014.9 |
| 20260504005415 | 56 | 133 | 0.0 | 1.7 | 0.00 | 0.00 | 0.00 | 37 | 1014.7 |
| 20260504004913 | 57 | 163 | 1.7 | 1.7 | 0.00 | 0.00 | 0.00 | 35 | 1014.8 |
| 20260504004411 | 57 | 196 | 0.0 | 1.7 | 0.00 | 0.00 | 0.00 | 35 | 1014.6 |
| 20260504003908 | 57 | 197 | 0.0 | 0.0 | 0.00 | 0.00 | 0.00 | 34 | 1014.4 |
| 20260504003404 | 57 | 137 | 0.0 | 1.7 | 0.00 | 0.00 | 0.00 | 35 | 1014.4 |
| 20260504002900 | 57 | 242 | 0.9 | 1.7 | 0.00 | 0.00 | 0.00 | 33 | 1014.4 |
| 20260504002358 | 57 | 235 | 0.0 | 2.6 | 0.00 | 0.00 | 0.00 | 34 | 1014.3 |
| 20260504001855 | 57 | 230 | 0.0 | 2.6 | 0.00 | 0.00 | 0.00 | 34 | 1014.5 |
| 20260504001352 | 58 | 191 | 0.0 | 0.9 | 0.00 | 0.00 | 0.00 | 34 | 1014.2 |
| 20260504000849 | 58 | 144 | 0.0 | 1.7 | 0.00 | 0.00 | 0.00 | 32 | 1014.5 |
| 20260504000346 | 58 | 166 | 0.0 | 2.6 | 0.00 | 0.00 | 0.00 | 32 | 1014.2 |
| 20260503235843 | 59 | 196 | 0.0 | 1.7 | 0.00 | 0.00 | 0.00 | 31 | 1014.3 |
| 20260503235341 | 59 | 187 | 0.0 | 0.9 | 0.00 | 0.00 | 0.00 | 31 | 1014.3 |
| 20260503234838 | 59 | 308 | 2.6 | 5.2 | 0.00 | 0.00 | 0.00 | 30 | 1014.1 |
| 20260503234336 | 59 | 241 | 1.7 | 2.6 | 0.00 | 0.00 | 0.00 | 30 | 1014.1 |
| 20260503233834 | 59 | 142 | 0.0 | 4.3 | 0.00 | 0.00 | 0.00 | 30 | 1014.0 |
| 20260503233329 | 59 | 268 | 1.7 | 5.2 | 0.00 | 0.00 | 0.00 | 29 | 1014.0 |
| 20260503232826 | 59 | 237 | 0.9 | 6.1 | 0.00 | 0.00 | 0.00 | 29 | 1013.9 |
| 20260503232323 | 60 | 252 | 1.7 | 2.6 | 0.00 | 0.00 | 0.00 | 29 | 1013.9 |
| 20260503231821 | 60 | 237 | 1.7 | 5.2 | 0.00 | 0.00 | 0.00 | 28 | 1013.8 |
| 20260503231318 | 60 | 267 | 3.5 | 4.3 | 0.00 | 0.00 | 0.00 | 29 | 1013.9 |
| 20260503230814 | 60 | 214 | 1.7 | 2.6 | 0.00 | 0.00 | 0.00 | 28 | 1013.8 |
| 20260503230311 | 60 | 227 | 0.9 | 3.5 | 0.00 | 0.00 | 0.00 | 29 | 1013.7 |
| 20260503225809 | 60 | 241 | 2.6 | 4.3 | 0.00 | 0.00 | 0.00 | 28 | 1013.7 |
| 20260503225305 | 60 | 260 | 3.5 | 4.3 | 0.00 | 0.00 | 0.00 | 27 | 1013.6 |
| 20260503224801 | 60 | 254 | 2.6 | 7.0 | 0.00 | 0.00 | 0.00 | 27 | 1013.5 |
| 20260503224258 | 60 | 200 | 2.6 | 4.3 | 0.00 | 0.00 | 0.00 | 27 | 1013.7 |
| 20260503223756 | 61 | 264 | 2.6 | 2.6 | 0.00 | 0.00 | 0.00 | 27 | 1013.6 |
| 20260503223253 | 61 | 193 | 0.9 | 2.6 | 0.00 | 0.00 | 0.00 | 29 | 1013.9 |
| 20260503222749 | 61 | 232 | 0.9 | 4.3 | 0.00 | 0.00 | 0.00 | 27 | 1013.7 |
| 20260503222247 | 61 | 252 | 2.6 | 2.6 | 0.00 | 0.00 | 0.00 | 28 | 1013.7 |
| 20260503221746 | 62 | 247 | 2.6 | 8.7 | 0.00 | 0.00 | 0.00 | 25 | 1013.5 |
| 20260503221244 | 64 | 301 | 0.9 | 4.3 | 0.00 | 0.00 | 0.00 | 24 | 1013.6 |
| 20260503220740 | 64 | 224 | 0.9 | 3.5 | 0.00 | 0.00 | 0.00 | 26 | 1013.5 |
| 20260503220237 | 64 | 178 | 0.0 | 7.8 | 0.00 | 0.00 | 0.00 | 26 | 1013.6 |
| 20260503215733 | 63 | 233 | 0.0 | 7.0 | 0.00 | 0.00 | 0.00 | 27 | 1013.7 |
| 20260503215230 | 63 | 278 | 6.1 | 7.8 | 0.00 | 0.00 | 0.00 | 25 | 1013.6 |
| 20260503214728 | 63 | 326 | 1.7 | 4.3 | 0.00 | 0.00 | 0.00 | 25 | 1013.7 |
| 20260503214225 | 64 | 232 | 1.7 | 8.7 | 0.00 | 0.00 | 0.00 | 25 | 1013.7 |
| 20260503213723 | 63 | 331 | 0.0 | 3.5 | 0.00 | 0.00 | 0.00 | 27 | 1013.6 |
| 20260503213220 | 63 | 269 | 4.3 | 7.0 | 0.00 | 0.00 | 0.00 | 27 | 1013.8 |
| 20260503212717 | 64 | 233 | 4.3 | 8.7 | 0.00 | 0.00 | 0.00 | 26 | 1013.4 |
| 20260503212214 | 63 | 258 | 2.6 | 4.3 | 0.00 | 0.00 | 0.00 | 27 | 1013.5 |
| 20260503211712 | 62 | 281 | 1.7 | 4.3 | 0.00 | 0.00 | 0.00 | 26 | 1013.6 |
| 20260503211208 | 61 | 297 | 0.9 | 4.3 | 0.00 | 0.00 | 0.00 | 28 | 1013.6 |
| 20260503210704 | 62 | 243 | 7.8 | 8.7 | 0.00 | 0.00 | 0.00 | 26 | 1013.6 |
| 20260503210201 | 63 | 19 | 0.9 | 8.7 | 0.00 | 0.00 | 0.00 | 26 | 1013.7 |
| 20260503205656 | 62 | 38 | 1.7 | 8.7 | 0.00 | 0.00 | 0.00 | 27 | 1013.7 |
| 20260503205152 | 63 | 22 | 4.3 | 6.1 | 0.00 | 0.00 | 0.00 | 26 | 1013.7 |
| 20260503204649 | 63 | 2 | 3.5 | 4.3 | 0.00 | 0.00 | 0.00 | 25 | 1013.7 |
| 20260503204147 | 62 | 306 | 1.7 | 5.2 | 0.00 | 0.00 | 0.00 | 27 | 1013.8 |
| 20260503203643 | 62 | 312 | 2.6 | 6.1 | 0.00 | 0.00 | 0.00 | 26 | 1013.8 |
| 20260503203141 | 61 | 251 | 2.6 | 7.8 | 0.00 | 0.00 | 0.00 | 26 | 1013.8 |
| 20260503202638 | 62 | 250 | 7.8 | 8.7 | 0.00 | 0.00 | 0.00 | 26 | 1013.9 |
| 20260503202137 | 61 | 199 | 1.7 | 5.2 | 0.00 | 0.00 | 0.00 | 27 | 1013.9 |
| 20260503201634 | 61 | 151 | 1.7 | 9.6 | 0.00 | 0.00 | 0.00 | 27 | 1013.9 |
| 20260503201131 | 61 | 147 | 1.7 | 4.3 | 0.00 | 0.00 | 0.00 | 28 | 1014.0 |
| 20260503200627 | 60 | 257 | 2.6 | 9.6 | 0.00 | 0.00 | 0.00 | 27 | 1014.0 |
| 20260503200124 | 60 | 297 | 2.6 | 3.5 | 0.00 | 0.00 | 0.00 | 28 | 1014.2 |
| 20260503195621 | 60 | 309 | 2.6 | 7.0 | 0.00 | 0.00 | 0.00 | 27 | 1013.9 |
| 20260503195118 | 60 | 251 | 4.3 | 5.2 | 0.00 | 0.00 | 0.00 | 27 | 1013.8 |
| 20260503194615 | 59 | 190 | 0.9 | 14.8 | 0.00 | 0.00 | 0.00 | 26 | 1014.0 |
| 20260503194110 | 60 | 231 | 1.7 | 4.3 | 0.00 | 0.00 | 0.00 | 26 | 1014.2 |
| 20260503193607 | 61 | 300 | 2.6 | 5.2 | 0.00 | 0.00 | 0.00 | 27 | 1014.2 |
| 20260503193102 | 60 | 163 | 0.9 | 2.6 | 0.00 | 0.00 | 0.00 | 29 | 1014.1 |
| 20260503192558 | 60 | 309 | 5.2 | 5.2 | 0.00 | 0.00 | 0.00 | 28 | 1014.1 |
| 20260503192054 | 60 | 326 | 4.3 | 4.3 | 0.00 | 0.00 | 0.00 | 28 | 1014.4 |
| 20260503191551 | 60 | 222 | 2.6 | 4.3 | 0.00 | 0.00 | 0.00 | 28 | 1014.3 |
| 20260503191048 | 60 | 278 | 7.0 | 8.7 | 0.00 | 0.00 | 0.00 | 26 | 1014.1 |
| 20260503190539 | 59 | 317 | 1.7 | 9.6 | 0.00 | 0.00 | 0.00 | 28 | 1014.4 |
| 20260503190037 | 59 | 234 | 1.7 | 10.4 | 0.00 | 0.00 | 0.00 | 28 | 1014.5 |
| 20260503185533 | 59 | 43 | 4.3 | 6.1 | 0.00 | 0.00 | 0.00 | 30 | 1014.4 |
| 20260503185033 | 58 | 162 | 3.5 | 7.0 | 0.00 | 0.00 | 0.00 | 30 | 1014.5 |
| 20260503184529 | 58 | 337 | 1.7 | 5.2 | 0.00 | 0.00 | 0.00 | 29 | 1014.5 |
| 20260503184026 | 58 | 14 | 1.7 | 7.8 | 0.00 | 0.00 | 0.00 | 31 | 1014.6 |
| 20260503183522 | 57 | 331 | 0.0 | 6.1 | 0.00 | 0.00 | 0.00 | 29 | 1014.9 |
| 20260503183019 | 58 | 238 | 6.1 | 7.0 | 0.00 | 0.00 | 0.00 | 29 | 1014.7 |
| 20260503182518 | 57 | 233 | 3.5 | 7.8 | 0.00 | 0.00 | 0.00 | 28 | 1014.6 |
| 20260503182015 | 57 | 256 | 4.3 | 8.7 | 0.00 | 0.00 | 0.00 | 29 | 1014.6 |
| 20260503181512 | 57 | 223 | 5.2 | 5.2 | 0.00 | 0.00 | 0.00 | 30 | 1014.7 |
| 20260503181008 | 57 | 225 | 0.9 | 5.2 | 0.00 | 0.00 | 0.00 | 32 | 1015.0 |
| 20260503180506 | 57 | 248 | 0.0 | 3.5 | 0.00 | 0.00 | 0.00 | 28 | 1014.7 |
| 20260503180003 | 57 | 225 | 7.8 | 9.6 | 0.00 | 0.00 | 0.00 | 29 | 1014.9 |